TimeCST,TemperatureF,Dew PointF,Humidity,Sea Level PressureIn,VisibilityMPH,Wind Direction,Wind SpeedMPH,Gust SpeedMPH,PrecipitationIn,Events,Conditions,WindDirDegrees,DateUTC
12:15 AM,21.2,15.4,78,29.96,10.0,SSE,4.6,-,N/A,,Clear,160,2013-02-24 06:15:00
12:35 AM,21.2,15.4,78,29.97,10.0,SSE,4.6,-,N/A,,Clear,160,2013-02-24 06:35:00
12:55 AM,21.2,15.6,79,29.97,10.0,SSE,4.6,-,N/A,,Clear,150,2013-02-24 06:55:00
1:15 AM,18.3,12.9,79,29.96,10.0,SE,5.8,-,N/A,,Clear,140,2013-02-24 07:15:00
1:35 AM,19.4,15.1,83,29.99,10.0,SSW,3.5,-,N/A,,Clear,210,2013-02-24 07:35:00
1:55 AM,19.4,14.9,83,29.99,10.0,South,3.5,-,N/A,,Clear,170,2013-02-24 07:55:00
2:15 AM,19.4,14.9,83,29.98,10.0,South,5.8,-,N/A,,Clear,170,2013-02-24 08:15:00
2:35 AM,18.9,14.2,82,29.98,10.0,SSE,5.8,-,N/A,,Clear,160,2013-02-24 08:35:00
2:55 AM,16.5,12.7,85,29.98,7.0,Calm,Calm,-,N/A,,Clear,0,2013-02-24 08:55:00
3:15 AM,16.5,13.6,88,29.98,7.0,Calm,Calm,-,N/A,,Clear,0,2013-02-24 09:15:00
3:35 AM,18.3,15.8,90,29.98,7.0,Calm,Calm,-,N/A,,Clear,0,2013-02-24 09:35:00
3:55 AM,17.6,14.4,87,29.98,7.0,Calm,Calm,-,N/A,,Clear,0,2013-02-24 09:55:00
4:15 AM,16.7,13.8,88,30.00,7.0,South,4.6,-,N/A,,Clear,170,2013-02-24 10:15:00
4:35 AM,17.4,14.0,86,30.00,7.0,South,5.8,-,N/A,,Clear,170,2013-02-24 10:35:00
4:55 AM,15.6,12.2,86,30.00,7.0,South,4.6,-,N/A,,Clear,170,2013-02-24 10:55:00
5:15 AM,17.6,14.4,87,30.00,7.0,South,4.6,-,N/A,,Clear,170,2013-02-24 11:15:00
5:35 AM,17.6,14.0,86,30.01,7.0,South,4.6,-,N/A,,Clear,180,2013-02-24 11:35:00
5:55 AM,16.7,13.3,86,30.02,7.0,South,4.6,-,N/A,,Clear,180,2013-02-24 11:55:00
6:15 AM,16.7,13.8,88,30.02,7.0,South,5.8,-,N/A,,Clear,180,2013-02-24 12:15:00
6:35 AM,16.5,13.8,89,30.03,7.0,South,6.9,-,N/A,,Clear,180,2013-02-24 12:35:00
7:15 AM,15.6,12.9,89,30.04,5.0,SSE,3.5,-,N/A,,Clear,160,2013-02-24 13:15:00
7:35 AM,16.7,14.0,89,30.04,5.0,Calm,Calm,-,N/A,,Clear,0,2013-02-24 13:35:00
7:55 AM,17.6,13.8,85,30.04,5.0,Calm,Calm,-,N/A,,Clear,0,2013-02-24 13:55:00
8:15 AM,20.1,15.1,81,30.04,7.0,Calm,Calm,-,N/A,,Clear,0,2013-02-24 14:15:00
8:35 AM,22.8,16.0,75,30.05,7.0,South,4.6,-,N/A,,Clear,180,2013-02-24 14:35:00
8:55 AM,24.8,16.7,71,30.06,7.0,Calm,Calm,-,N/A,,Clear,0,2013-02-24 14:55:00
9:15 AM,26.2,17.2,69,30.06,7.0,South,4.6,-,N/A,,Clear,170,2013-02-24 15:15:00
9:35 AM,28.2,18.1,66,30.06,7.0,Calm,Calm,-,N/A,,Clear,0,2013-02-24 15:35:00
9:55 AM,29.8,19.2,65,30.06,10.0,Calm,Calm,-,N/A,,Clear,0,2013-02-24 15:55:00
10:15 AM,32.7,19.9,59,30.06,10.0,Calm,Calm,-,N/A,,Clear,0,2013-02-24 16:15:00
10:35 AM,34.0,20.5,58,30.07,10.0,Calm,Calm,-,N/A,,Clear,0,2013-02-24 16:35:00
10:55 AM,33.8,21.0,60,30.07,7.0,ESE,3.5,-,N/A,,Clear,120,2013-02-24 16:55:00
11:15 AM,34.9,21.0,57,30.07,7.0,Calm,Calm,-,N/A,,Clear,0,2013-02-24 17:15:00
11:35 AM,37.0,22.3,55,30.07,7.0,Calm,Calm,-,N/A,,Clear,0,2013-02-24 17:35:00
11:55 AM,37.8,22.1,53,30.07,7.0,Calm,Calm,-,N/A,,Clear,0,2013-02-24 17:55:00
12:15 PM,38.5,22.6,53,30.07,10.0,SE,3.5,-,N/A,,Clear,140,2013-02-24 18:15:00
12:35 PM,37.9,23.2,55,30.07,10.0,SE,4.6,-,N/A,,Clear,130,2013-02-24 18:35:00
12:55 PM,38.3,22.8,54,30.07,10.0,SE,4.6,-,N/A,,Clear,130,2013-02-24 18:55:00
1:15 PM,39.0,23.7,54,30.06,10.0,SE,5.8,-,N/A,,Clear,130,2013-02-24 19:15:00
1:35 PM,40.1,23.9,52,30.06,10.0,SE,4.6,-,N/A,,Clear,140,2013-02-24 19:35:00
1:55 PM,40.5,24.4,53,30.05,10.0,SE,4.6,-,N/A,,Clear,140,2013-02-24 19:55:00
2:15 PM,41.5,25.0,52,30.04,10.0,Calm,Calm,-,N/A,,Clear,0,2013-02-24 20:15:00
2:35 PM,41.2,25.3,53,30.03,10.0,East,3.5,-,N/A,,Clear,100,2013-02-24 20:35:00
2:55 PM,40.8,25.5,55,30.03,10.0,ESE,4.6,-,N/A,,Clear,110,2013-02-24 20:55:00
3:15 PM,40.5,25.5,55,30.03,10.0,East,5.8,-,N/A,,Clear,100,2013-02-24 21:15:00
3:35 PM,40.8,25.7,55,30.02,10.0,East,4.6,-,N/A,,Clear,100,2013-02-24 21:35:00
3:55 PM,41.9,26.2,54,30.03,10.0,East,3.5,-,N/A,,Clear,100,2013-02-24 21:55:00
4:15 PM,41.2,25.3,53,30.03,10.0,Calm,Calm,-,N/A,,Clear,0,2013-02-24 22:15:00
4:35 PM,41.0,25.9,55,30.03,10.0,East,3.5,-,N/A,,Clear,80,2013-02-24 22:35:00
4:55 PM,40.3,26.2,57,30.02,10.0,ENE,4.6,-,N/A,,Clear,70,2013-02-24 22:55:00
5:15 PM,38.7,26.8,62,30.03,10.0,ENE,3.5,-,N/A,,Clear,70,2013-02-24 23:15:00
5:35 PM,37.6,27.1,66,30.03,10.0,ENE,3.5,-,N/A,,Clear,60,2013-02-24 23:35:00
5:55 PM,36.7,27.1,68,30.03,10.0,ENE,3.5,-,N/A,,Clear,60,2013-02-24 23:55:00
6:15 PM,36.5,27.3,69,30.04,10.0,Calm,Calm,-,N/A,,Clear,0,2013-02-25 00:15:00
6:35 PM,35.6,27.0,71,30.05,10.0,ENE,3.5,-,N/A,,Clear,70,2013-02-25 00:35:00
6:55 PM,35.4,26.6,70,30.06,10.0,East,3.5,-,N/A,,Clear,80,2013-02-25 00:55:00
7:15 PM,35.1,26.6,71,30.07,10.0,East,3.5,-,N/A,,Clear,80,2013-02-25 01:15:00
7:35 PM,34.7,26.2,71,30.07,10.0,East,4.6,-,N/A,,Clear,80,2013-02-25 01:35:00
7:55 PM,33.8,26.1,73,30.06,10.0,East,4.6,-,N/A,,Clear,80,2013-02-25 01:55:00
8:15 PM,33.4,26.1,74,30.07,10.0,East,5.8,-,N/A,,Clear,80,2013-02-25 02:15:00
8:35 PM,32.9,25.7,75,30.07,10.0,East,3.5,-,N/A,,Clear,100,2013-02-25 02:35:00
8:55 PM,32.0,25.5,77,30.07,7.0,ESE,5.8,-,N/A,,Clear,110,2013-02-25 02:55:00
9:15 PM,31.5,25.7,79,30.07,7.0,ESE,5.8,-,N/A,,Clear,110,2013-02-25 03:15:00
9:35 PM,31.8,25.7,78,30.08,7.0,ESE,4.6,-,N/A,,Clear,110,2013-02-25 03:35:00
9:55 PM,30.9,25.7,81,30.08,7.0,ESE,4.6,-,N/A,,Clear,110,2013-02-25 03:55:00
10:15 PM,30.0,25.3,83,30.09,7.0,Calm,Calm,-,N/A,,Clear,0,2013-02-25 04:15:00
10:35 PM,29.3,25.5,86,30.08,7.0,East,3.5,-,N/A,,Clear,80,2013-02-25 04:35:00
10:55 PM,30.0,26.1,85,30.08,7.0,East,3.5,-,N/A,,Scattered Clouds,100,2013-02-25 04:55:00
11:15 PM,30.2,25.7,83,30.08,7.0,East,4.6,-,N/A,,Clear,100,2013-02-25 05:15:00
11:35 PM,30.6,25.7,82,30.09,7.0,Calm,Calm,-,N/A,,Clear,0,2013-02-25 05:35:00
11:55 PM,30.9,25.3,80,30.08,7.0,East,3.5,-,N/A,,Clear,100,2013-02-25 05:55:00